Regional Weather Roundup
Issued by NWS Portland, ME

Home | Current Version | Previous Version | Text Only | Print | Product List | Glossary On
Versions: 1 2 3 4 5 6 7 8 9 10 11 12 13 14 15 16 17 18 19 20 21 22 23 24 25 26 27 28 29 30 31 32 33 34 35 36 37 38 39 40 41 42 43 44 45 46 47 48 49 50
000
ASUS41 KGYX 010510
RWRGYX
WEATHER ROUNDUP FOR MAINE AND NEW HAMPSHIRE
NATIONAL WEATHER SERVICE GRAY ME
100 AM EDT SUN MAY 01 2016

MEZ002-005-006-010-012-015-018-020-021-024-026-027-029-010600-
MAINE

CITY           SKY/WX    TMP DP  RH WIND       PRES   REMARKS
PORTLAND       PTCLDY    43  36  76 CALM      30.25S
SANFORD        CLOUDY    34  30  86 CALM      30.24S
BAR HARBOR     CLEAR     39  35  86 CALM      30.26S
WISCASSET      PTCLDY    36  34  92 CALM      30.27S
ROCKLAND       PTCLDY    36  34  92 CALM      30.26S
FRYEBURG       CLOUDY    36  31  82 CALM      30.22S
LEWISTONAUBURN CLOUDY    37  30  75 CALM      30.23S
AUGUSTA        MOCLDY    38  34  85 S3        30.24S
WATERVILLE     MOCLDY    39  33  79 SW3       30.22R
BANGOR         CLEAR     39  33  79 CALM      30.25S
GREENVILLE       N/A     39  17  41 NE8       30.18F
MILLINOCKET    PTCLDY    33  24  69 CALM      30.24R
HOULTON        CLEAR     28  21  75 CALM      30.21S
PRESQUE ISLE   PTCLDY    29  23  78 CALM      30.23S
FRENCHVILLE    CLEAR     38  18  44 N5        30.21F
CARIBOU        CLEAR     37  20  50 CALM      30.21S
$$

NHZ002-005-008-009-011-012-014-010600-
NEW HAMPSHIRE

CITY           SKY/WX    TMP DP  RH WIND       PRES   REMARKS
PORTSMOUTH     MOCLDY    45  36  71 SE7       30.22S
ROCHESTER      PTCLDY    40  33  76 CALM      30.22S
NASHUA         CLEAR     47  34  60 SE3       30.22S
MANCHESTER     CLEAR     48  33  56 S9        30.20S
CONCORD        MOCLDY    43  30  60 CALM      30.21S
LACONIA        CLOUDY    43  32  65 CALM      30.22S
PLYMOUTH       FAIR      41  35  77 CALM      30.21S
BERLIN         PTCLDY    30  24  78 CALM      30.19F
WHITEFIELD     MOCLDY    34  27  75 CALM      30.18F
JAFFREY        CLOUDY    46  32  58 SW7       30.20S
KEENE          PTCLDY    48  34  57 S3        30.21F
LEBANON        CLOUDY    46  34  62 NE8       30.17F
MT WASHINGTON  CLOUDY    32  18  55 W12         N/A
$$

VTZ005-007-008-010600-
VERMONT

CITY           SKY/WX    TMP DP  RH WIND       PRES   REMARKS
ST JOHNSBURY     N/A     41  28  60 MISG      30.18F
MONTPELIER     FAIR      40  25  55 CALM      30.22F
$$

MAZ007-012-024-CTZ003-RIZ002-NYZ038-NYZ072-010600-
SOUTHERN NEW ENGLAND AND NY

CITY           SKY/WX    TMP DP  RH WIND       PRES   REMARKS
BOSTON         PTCLDY    45  34  65 SW6       30.25F
WORCESTER      CLEAR     41  28  60 SW9       30.21F
NANTUCKET      CLEAR     38  33  82 CALM      30.26S
PROVIDENCE     CLEAR     43  34  70 SW3       30.26F
HARTFORD       MOCLDY    46  33  60 S8        30.22F
ALBANY         CLOUDY    54  39  57 S8        30.17F
NEW YORK CITY  CLOUDY    51  37  58 S7        30.24S
$$

ANZ081-ANZ082-ANZ150-NHZ014-MEZ023>029-010600-
COASTAL MARINE OBSERVATIONS

STATION/POSITION TIME  TEMP    WIND        PRES    WAVE
                       AIR SEA DIR/SP/G            HT/PER
                 (UTC) (F)     (DEG/KT/KT) (MB)    (FT/S)
MOUNT DESERT ROC 0500   44     260/ 10/ 11 1024.6F
MATINICUS ROCK   0400   43     260/  7/  8 1024.4S
ISLE OF SHOALS   0400   47     190/ 13/ 14 1023.6R
CASHES LEDGE BUO 0450   45 45  220/  6/  6 1024.5F   2/ 9
GEORGES BANK BUO 0450   45 45              1023.2R   7/ 9
$$

.............KEY..............
   WCI - WIND CHILL
   TC  - TEMPERATURE IN CELSIUS
   VSB - VISIBILITY IN MILES
   HX  - HEAT INDEX
   FAIR- INDICATES FEW OR NO CLOUDS BELOW 12,000 FT, WITH NO
         SIGNIFICANT WEATHER AND/OR OBSTRUCTIONS TO VISIBILITY.






USA.gov is the U.S. government's official web portal to all federal, state and local government web resources and services.